Weather reports worldwide

Advertisment
Pertusato, France (7770): temperature & dewpoint: 26.06.2020 07:00:00 - 02.07.2020 07:00:00 (CEST)Pertusato, France (7770): wind speed & gusts: 26.06.2020 07:00:00 - 02.07.2020 07:00:00 (CEST)Pertusato, France (7770): wind direction: 26.06.2020 07:00:00 - 02.07.2020 07:00:00 (CEST)Pertusato, France (7770): reduced air pressure: 26.06.2020 07:00:00 - 02.07.2020 07:00:00 (CEST)Pertusato, France (7770): visibility: 26.06.2020 07:00:00 - 02.07.2020 07:00:00 (CEST)Pertusato, France (7770): precipitation: 26.06.2020 07:00:00 - 02.07.2020 07:00:00 (CEST)
Date & Time tt [°C] td [°C] ff [km/h] ff [kn] fx [km/h] fx [kn] dd ppp [hPa] vv [km] rr [mm]
02.07.2020 07:00:00 22,1 21,3 12 7 16 9 NNE 1011,1 - 0,0
02.07.2020 06:00:00 21,3 20,6 13 7 16 9 NE 1010,7 - 0,0
02.07.2020 05:00:00 21,4 20,7 13 7 21 11 NE 1010,6 15 0,0
02.07.2020 04:00:00 21,6 20,8 13 7 18 10 NE 1011,0 - 0,0
02.07.2020 03:00:00 22,0 21,0 9 5 13 7 NNE 1011,3 - 0,0
02.07.2020 02:00:00 22,6 21,8 9 5 29 15 NE 1011,7 - 0,0
02.07.2020 01:00:00 22,9 22,1 21 11 34 18 ENE 1011,5 - 0,0
02.07.2020 00:00:00 22,9 21,5 27 15 39 21 NE 1011,0 - 0,0
01.07.2020 23:00:00 23,0 21,4 27 14 39 21 ENE 1011,0 - 0,0
01.07.2020 22:00:00 23,0 21,1 28 15 41 22 ENE 1010,7 - 0,0
01.07.2020 21:00:00 23,5 21,4 28 15 42 23 NE 1010,6 - 0,0
01.07.2020 20:00:00 24,7 20,6 24 13 40 21 ENE 1010,9 15 0,0
01.07.2020 19:00:00 25,5 19,4 29 15 43 23 E 1010,7 - 0,0
01.07.2020 18:00:00 27,0 18,8 29 15 39 21 ENE 1011,1 - 0,0
01.07.2020 17:00:00 27,7 19,0 27 15 41 22 E 1011,7 - 0,0
01.07.2020 16:00:00 29,2 20,6 25 14 39 21 ENE 1012,0 - 0,0
01.07.2020 15:00:00 29,4 20,5 25 14 38 21 ENE 1012,3 - 0,0
01.07.2020 14:00:00 29,1 20,5 25 13 36 19 ENE 1012,0 15 0,0
01.07.2020 13:00:00 29,3 21,3 20 11 31 17 ENE 1012,6 - 0,0
01.07.2020 12:00:00 28,5 21,3 20 11 29 16 E 1012,9 - 0,0
01.07.2020 11:00:00 27,9 21,4 14 8 26 14 E 1013,3 15 0,0
01.07.2020 10:00:00 26,1 21,1 14 7 22 12 ESE 1013,4 - 0,0
01.07.2020 09:00:00 24,8 20,7 6 4 12 7 S 1013,8 - 0,0
01.07.2020 08:00:00 23,3 19,2 5 3 7 4 W 1013,9 17 0,0
01.07.2020 07:00:00 21,6 19,0 4 2 14 8 NW 1013,6 - 0,0
01.07.2020 06:00:00 20,7 19,7 13 7 25 13 WNW 1013,3 - 0,0
01.07.2020 05:00:00 21,3 20,1 21 11 36 19 W 1012,9 15 0,0
01.07.2020 04:00:00 21,5 20,3 16 9 39 21 W 1012,8 - 0,0
01.07.2020 03:00:00 21,5 20,3 27 15 41 22 W 1012,9 - 0,0
01.07.2020 02:00:00 21,6 20,4 23 12 35 19 W 1013,4 - 0,0
01.07.2020 01:00:00 21,5 20,3 19 11 31 17 W 1013,9 - 0,0
01.07.2020 00:00:00 21,7 20,0 23 12 36 19 W 1013,9 - 0,0
30.06.2020 23:00:00 22,0 20,1 16 9 33 18 W 1013,9 - 0,0
30.06.2020 22:00:00 22,1 19,6 16 9 47 25 W 1013,4 - 0,0
30.06.2020 21:00:00 22,3 19,8 31 17 54 29 W 1012,8 - 0,0
30.06.2020 20:00:00 22,8 20,1 34 18 54 29 W 1012,6 15 0,0
30.06.2020 19:00:00 23,3 20,1 34 18 54 29 W 1012,8 - 0,0
30.06.2020 18:00:00 23,8 20,3 37 20 57 31 W 1013,0 - 0,0
30.06.2020 17:00:00 23,8 20,7 38 21 60 32 W 1013,2 12 0,0
30.06.2020 16:00:00 23,7 21,0 27 15 58 32 W 1013,2 - 0,0
30.06.2020 15:00:00 23,7 20,8 19 11 54 29 W 1013,2 - 0,0
30.06.2020 14:00:00 23,8 21,1 16 9 51 27 W 1013,3 12 0,0
30.06.2020 13:00:00 23,6 21,3 24 13 50 27 W 1013,6 - 0,0
30.06.2020 12:00:00 23,3 21,4 23 12 45 25 W 1013,5 - 0,0
30.06.2020 11:00:00 23,6 21,5 15 8 50 27 W 1013,5 15 0,0
30.06.2020 10:00:00 23,3 21,4 18 10 50 27 W 1013,3 - 0,0
30.06.2020 09:00:00 23,0 21,1 18 10 58 31 W 1013,2 - 0,0
30.06.2020 08:00:00 22,6 21,2 20 11 54 29 W 1012,8 15 0,0
30.06.2020 07:00:00 22,2 21,0 19 11 54 29 W 1012,5 - 0,0
30.06.2020 06:00:00 21,9 21,2 19 10 59 32 W 1012,6 - 0,0
30.06.2020 05:00:00 22,1 21,6 19 10 55 30 W 1012,4 8 0,2
30.06.2020 04:00:00 22,1 21,8 21 11 63 34 W 1012,6 - 0,0
30.06.2020 03:00:00 22,1 21,8 34 19 63 34 W 1012,5 - 0,0
30.06.2020 02:00:00 22,2 21,7 33 18 64 35 W 1012,9 - 0,0
30.06.2020 01:00:00 22,2 21,9 19 10 54 29 W 1013,4 - 0,0
30.06.2020 00:00:00 22,3 22,0 18 10 50 27 W 1013,8 - 0,0
29.06.2020 23:00:00 22,5 22,2 22 12 53 29 WSW 1013,9 - 0,0
29.06.2020 22:00:00 22,5 22,2 25 14 48 26 WSW 1013,9 - 0,0
29.06.2020 21:00:00 22,7 22,2 16 9 53 28 WSW 1013,6 - 0,0
29.06.2020 20:00:00 23,0 22,3 18 10 48 26 W 1013,2 6 0,0
29.06.2020 19:00:00 23,5 22,3 21 12 51 28 W 1013,3 - 0,0
29.06.2020 18:00:00 23,7 21,8 19 10 59 32 W 1013,4 - 0,0
29.06.2020 17:00:00 23,7 21,4 23 12 59 32 W 1013,3 15 0,0
29.06.2020 16:00:00 23,9 21,2 41 22 61 33 W 1013,5 - 0,0
29.06.2020 15:00:00 24,0 20,9 41 22 61 33 W 1014,1 - 0,0
29.06.2020 14:00:00 23,8 20,9 19 11 55 30 W 1014,2 15 0,0
29.06.2020 13:00:00 23,6 21,5 21 12 46 25 WSW 1014,5 - 0,0
29.06.2020 12:00:00 23,4 21,3 23 12 72 39 W 1014,8 - 0,0
29.06.2020 11:00:00 23,1 20,6 29 15 66 36 W 1014,5 12 0,0
29.06.2020 10:00:00 22,0 21,5 21 12 57 31 W 1014,3 - 0,0
29.06.2020 09:00:00 21,9 21,2 19 10 53 28 W 1014,6 - 0,0
29.06.2020 08:00:00 22,1 21,1 20 11 52 28 W 1014,6 12 0,0
29.06.2020 07:00:00 22,1 20,0 18 10 50 27 WNW 1014,1 - 0,0
29.06.2020 06:00:00 21,6 19,7 28 15 51 28 W 1014,1 - 0,2
29.06.2020 05:00:00 21,7 21,0 18 10 50 27 WNW 1013,9 12 0,0
29.06.2020 04:00:00 21,9 21,4 16 9 49 26 W 1014,2 - 0,0
29.06.2020 03:00:00 21,9 21,6 16 9 51 28 W 1014,4 - 0,0
29.06.2020 02:00:00 22,1 21,8 16 8 45 24 W 1014,8 - 0,0
29.06.2020 01:00:00 22,0 21,5 13 7 46 25 W 1015,2 - 0,0
29.06.2020 00:00:00 22,1 21,6 14 7 42 23 W 1015,3 - 0,2
28.06.2020 23:00:00 22,2 21,5 18 10 42 23 WSW 1015,4 - 0,0
28.06.2020 22:00:00 22,4 21,6 18 10 36 19 WSW 1015,6 - 0,0
28.06.2020 21:00:00 22,5 21,3 20 11 41 22 WSW 1015,4 - 0,0
28.06.2020 20:00:00 23,2 21,3 11 6 30 16 W 1015,3 12 0,0
28.06.2020 19:00:00 24,2 21,3 11 6 24 13 WSW 1015,4 - 0,0
28.06.2020 18:00:00 24,7 21,2 9 5 27 15 W 1015,7 - 0,0
28.06.2020 17:00:00 25,3 21,0 18 10 30 16 W 1015,7 12 0,0
28.06.2020 16:00:00 26,1 21,1 8 5 17 9 W 1016,1 - 0,0
28.06.2020 15:00:00 25,3 21,4 10 6 26 14 W 1016,4 - 0,0
28.06.2020 14:00:00 25,2 21,3 16 8 23 12 W 1016,8 12 0,0
28.06.2020 13:00:00 25,6 21,1 8 4 15 8 W 1016,8 - 0,0
28.06.2020 12:00:00 24,9 21,0 10 5 15 8 W 1017,0 - 0,0
28.06.2020 11:00:00 24,5 21,2 8 4 15 8 WSW 1017,0 12 0,0
28.06.2020 10:00:00 23,8 21,1 6 3 15 8 SW 1016,8 - 0,0
28.06.2020 09:00:00 23,2 20,5 5 3 10 5 SSW 1016,8 - 0,0
28.06.2020 08:00:00 22,2 21,0 5 3 7 4 W 1016,6 12 0,0
28.06.2020 07:00:00 21,4 20,9 3 1 8 5 S 1016,2 - 0,0
28.06.2020 06:00:00 20,3 19,6 8 5 18 10 E 1015,9 - 0,0
28.06.2020 05:00:00 20,4 19,7 14 8 21 11 ENE 1015,7 12 0,0
28.06.2020 04:00:00 20,7 19,9 13 7 23 12 ENE 1015,6 - 0,2
28.06.2020 03:00:00 20,9 20,1 17 9 24 13 ENE 1015,4 - 0,0
28.06.2020 02:00:00 21,1 20,3 15 8 20 11 ENE 1015,8 - 0,0
28.06.2020 01:00:00 21,2 20,0 13 7 22 12 E 1016,0 - 0,0
28.06.2020 00:00:00 20,9 19,7 16 9 22 12 ENE 1015,9 - 0,0
27.06.2020 23:00:00 21,3 20,1 13 7 18 10 ENE 1016,1 20 0,0
27.06.2020 22:00:00 21,7 20,3 10 5 22 12 ENE 1015,9 - 0,0
27.06.2020 21:00:00 22,6 20,5 14 8 29 16 ENE 1015,3 - 0,0
27.06.2020 20:00:00 24,0 19,9 20 11 31 17 ENE 1015,0 12 0,0
27.06.2020 19:00:00 25,2 19,8 20 11 32 18 ENE 1015,3 - 0,0
27.06.2020 18:00:00 26,0 19,2 23 12 39 21 ENE 1015,0 - 0,0
27.06.2020 17:00:00 26,4 19,8 22 12 35 19 E 1015,5 12 0,0
27.06.2020 16:00:00 28,0 20,0 21 12 38 21 ENE 1015,6 - 0,0
27.06.2020 15:00:00 27,9 18,9 23 12 42 23 ENE 1016,0 - 0,0
27.06.2020 14:00:00 27,1 16,4 28 15 44 24 E 1016,2 12 0,0
27.06.2020 13:00:00 27,1 20,0 27 15 46 25 ENE 1016,3 - 0,0
27.06.2020 12:00:00 26,7 20,3 26 14 43 23 E 1016,0 - 0,0
27.06.2020 11:00:00 26,1 20,4 29 16 46 25 ENE 1015,4 12 0,0
27.06.2020 10:00:00 24,9 20,2 29 16 48 26 ENE 1015,4 - 0,0
27.06.2020 09:00:00 24,0 20,1 29 16 42 23 ENE 1015,4 - 0,0
27.06.2020 08:00:00 23,1 20,8 20 11 31 17 E 1015,4 12 0,0
27.06.2020 07:00:00 21,5 20,5 14 7 24 13 E 1015,6 - 0,0
27.06.2020 06:00:00 20,6 19,8 17 9 24 13 ENE 1015,8 - 0,0
27.06.2020 05:00:00 20,8 20,0 20 11 31 17 ENE 1015,7 12 0,0
27.06.2020 04:00:00 20,8 19,8 21 11 29 16 ENE 1015,6 - 0,2
27.06.2020 03:00:00 21,1 19,9 21 12 31 17 ENE 1015,5 - 0,0
27.06.2020 02:00:00 21,4 20,0 19 11 34 18 ENE 1015,4 - 0,0
27.06.2020 01:00:00 21,4 19,7 19 11 32 17 ENE 1015,5 - 0,0
27.06.2020 00:00:00 21,3 19,4 19 11 37 20 ENE 1015,8 - 0,0
26.06.2020 23:00:00 21,8 20,6 24 13 36 19 ENE 1015,3 - 0,0
26.06.2020 22:00:00 21,8 19,7 22 12 36 20 ENE 1015,5 - 0,0
26.06.2020 21:00:00 22,4 19,4 22 12 37 20 ENE 1015,0 - 0,0
26.06.2020 20:00:00 23,8 18,4 27 15 39 21 ENE 1015,2 12 0,0
26.06.2020 19:00:00 25,3 18,7 23 12 40 21 NE 1015,6 - 0,0
26.06.2020 18:00:00 26,6 18,2 25 13 39 21 ENE 1015,6 - 0,0
26.06.2020 17:00:00 26,8 17,0 28 15 44 24 ENE 1016,2 - 0,0
26.06.2020 16:00:00 27,3 18,0 29 16 45 24 ENE 1016,4 - 0,0
26.06.2020 15:00:00 27,5 17,9 28 15 43 23 ENE 1016,3 - 0,0
26.06.2020 14:00:00 27,9 20,5 24 13 44 24 ENE 1016,5 14 0,0
26.06.2020 13:00:00 27,4 21,2 27 15 45 24 ENE 1016,6 - 0,0
26.06.2020 12:00:00 26,7 19,8 24 13 40 22 ENE 1016,9 - 0,0
26.06.2020 11:00:00 26,3 20,2 26 14 44 24 ENE 1016,8 14 0,0
26.06.2020 10:00:00 25,3 20,3 24 13 43 23 NE 1016,9 - 0,0
26.06.2020 09:00:00 24,3 20,2 26 14 37 20 ENE 1016,9 - 0,0
26.06.2020 08:00:00 22,6 20,1 24 13 37 20 NE 1016,8 14 0,0
26.06.2020 07:00:00 21,0 20,0 23 12 34 19 NE 1016,8 - 0,0

tt = temperature
td = dewpoint
ff = wind speed
fx = gusts
dd = wind direction
ppp = reduced air pressure
vv = visibility
rr = precipitation

Next stations